Latitude,Longitude,Height (m),Date (UTC),U_velocity (m/s),V_velocity (m/s),Wind_Speed (m/s),Wind_Dir (degrees)
40.9765625,-71.05267333984375,160,2019-01-01 00:00:00,-2.2575567,9.3989105,9.666234,166.49377
40.9765625,-71.05267333984375,160,2019-01-01 01:00:00,-6.660219,9.331769,11.464747,144.48401
40.9765625,-71.05267333984375,160,2019-01-01 02:00:00,-6.8061247,10.973401,12.912741,148.19122
40.9765625,-71.05267333984375,160,2019-01-01 03:00:00,-7.584859,12.466346,14.592459,148.68256
40.9765625,-71.05267333984375,160,2019-01-01 04:00:00,-7.8263865,16.414288,18.18464,154.50806
40.9765625,-71.05267333984375,160,2019-01-01 05:00:00,-7.8027296,19.436346,20.944073,158.12695
40.9765625,-71.05267333984375,160,2019-01-01 06:00:00,-7.781628,22.393332,23.706856,160.83777
40.9765625,-71.05267333984375,160,2019-01-01 07:00:00,-7.334755,22.187035,23.367992,161.70679
40.9765625,-71.05267333984375,160,2019-01-01 08:00:00,5.6460485,15.745944,16.7276,199.72638
40.9765625,-71.05267333984375,160,2019-01-01 09:00:00,20.030052,13.565273,24.191313,235.89233
40.9765625,-71.05267333984375,160,2019-01-01 10:00:00,21.207264,15.432024,26.22776,233.9575
40.9765625,-71.05267333984375,160,2019-01-01 11:00:00,22.9751,12.993064,26.3946,240.51062
40.9765625,-71.05267333984375,160,2019-01-01 12:00:00,23.03324,9.877282,25.06174,246.78903
40.9765625,-71.05267333984375,160,2019-01-01 13:00:00,22.616547,6.1487865,23.437485,254.79054
40.9765625,-71.05267333984375,160,2019-01-01 14:00:00,24.099625,6.343272,24.920454,255.25363
40.9765625,-71.05267333984375,160,2019-01-01 15:00:00,23.885233,4.9967394,24.40229,258.18427
40.9765625,-71.05267333984375,160,2019-01-01 16:00:00,21.410885,1.121013,21.440212,267.0029
40.9765625,-71.05267333984375,160,2019-01-01 17:00:00,22.454466,-0.37685555,22.457628,270.96152
40.9765625,-71.05267333984375,160,2019-01-01 18:00:00,20.01673,-3.0044222,20.24095,278.53613
40.9765625,-71.05267333984375,160,2019-01-01 19:00:00,17.247972,-5.8577747,18.215546,288.75858
40.9765625,-71.05267333984375,160,2019-01-01 20:00:00,14.71783,-6.8491354,16.23346,294.95554
40.9765625,-71.05267333984375,160,2019-01-01 21:00:00,11.558785,-8.766577,14.507183,307.17792
40.9765625,-71.05267333984375,160,2019-01-01 22:00:00,7.598222,-13.9765835,15.908421,331.46976
40.9765625,-71.05267333984375,160,2019-01-01 23:00:00,7.409045,-13.664752,15.544111,331.5334
40.9765625,-71.05267333984375,160,2019-01-02 00:00:00,7.2260966,-11.976261,13.987398,328.89453
40.9765625,-71.05267333984375,160,2019-01-02 01:00:00,9.891606,-8.09952,12.784604,309.31155
40.9765625,-71.05267333984375,160,2019-01-02 02:00:00,9.31491,-9.610952,13.384243,315.89615
40.9765625,-71.05267333984375,160,2019-01-02 03:00:00,8.243994,-10.481505,13.335118,321.81396
40.9765625,-71.05267333984375,160,2019-01-02 04:00:00,6.3146014,-10.277251,12.062176,328.43237
40.9765625,-71.05267333984375,160,2019-01-02 05:00:00,4.489403,-9.248079,10.280161,334.10614
40.9765625,-71.05267333984375,160,2019-01-02 06:00:00,-1.1773053,-10.302864,10.369911,6.5188904
40.9765625,-71.05267333984375,160,2019-01-02 07:00:00,0.32495257,-10.4237,10.428764,358.21442
40.9765625,-71.05267333984375,160,2019-01-02 08:00:00,0.97438794,-10.295105,10.341113,354.5933
40.9765625,-71.05267333984375,160,2019-01-02 09:00:00,0.17959578,-10.201505,10.203086,358.99142
40.9765625,-71.05267333984375,160,2019-01-02 10:00:00,-0.31678894,-9.685613,9.690792,1.8733215
40.9765625,-71.05267333984375,160,2019-01-02 11:00:00,-0.5501697,-9.476138,9.492096,3.3227844
40.9765625,-71.05267333984375,160,2019-01-02 12:00:00,-0.582755,-8.871049,8.890169,3.7584534
40.9765625,-71.05267333984375,160,2019-01-02 13:00:00,-1.007719,-7.6624904,7.728471,7.492157
40.9765625,-71.05267333984375,160,2019-01-02 14:00:00,-1.4125131,-6.52875,6.6798034,12.207947
40.9765625,-71.05267333984375,160,2019-01-02 15:00:00,-1.9420222,-5.39615,5.7349706,19.793304
40.9765625,-71.05267333984375,160,2019-01-02 16:00:00,-2.9209664,-4.9410276,5.739843,30.590118
40.9765625,-71.05267333984375,160,2019-01-02 17:00:00,-3.6061785,-5.176336,6.308643,34.863617
40.9765625,-71.05267333984375,160,2019-01-02 18:00:00,-3.9855258,-3.896203,5.5735817,45.649292
40.9765625,-71.05267333984375,160,2019-01-02 19:00:00,-3.836542,-2.7899387,4.743713,53.97531
40.9765625,-71.05267333984375,160,2019-01-02 20:00:00,-4.1786675,-1.8689692,4.5775876,65.90274
40.9765625,-71.05267333984375,160,2019-01-02 21:00:00,-3.88895,-0.7876584,3.9679136,78.550354
40.9765625,-71.05267333984375,160,2019-01-02 22:00:00,-3.4753103,0.80145466,3.5665264,102.986145
40.9765625,-71.05267333984375,160,2019-01-02 23:00:00,-2.9756076,2.226166,3.7161884,126.801575
40.9765625,-71.05267333984375,160,2019-01-03 00:00:00,-2.9338293,2.6842222,3.9764812,132.45605
40.9765625,-71.05267333984375,160,2019-01-03 01:00:00,-3.0602317,3.2579284,4.4698005,136.79224
40.9765625,-71.05267333984375,160,2019-01-03 02:00:00,-2.658393,5.32781,5.9542093,153.48242
40.9765625,-71.05267333984375,160,2019-01-03 03:00:00,-1.6895171,6.733914,6.9426265,165.9154
40.9765625,-71.05267333984375,160,2019-01-03 04:00:00,-1.7554091,7.4037194,7.6089764,166.66156
40.9765625,-71.05267333984375,160,2019-01-03 05:00:00,-0.4454858,6.986592,7.00078,176.35156
40.9765625,-71.05267333984375,160,2019-01-03 06:00:00,-0.1204348,7.073786,7.074811,179.0246
40.9765625,-71.05267333984375,160,2019-01-03 07:00:00,-0.70347726,7.6489863,7.6812677,174.7453
40.9765625,-71.05267333984375,160,2019-01-03 08:00:00,-0.8112687,6.99336,7.040259,173.38293
40.9765625,-71.05267333984375,160,2019-01-03 09:00:00,-1.8312739,7.3521233,7.5767593,166.0133
40.9765625,-71.05267333984375,160,2019-01-03 10:00:00,-1.522513,8.010937,8.154334,169.23901
40.9765625,-71.05267333984375,160,2019-01-03 11:00:00,-0.9760779,8.281491,8.338815,173.27795
40.9765625,-71.05267333984375,160,2019-01-03 12:00:00,-0.27788895,8.748096,8.752509,178.1806
40.9765625,-71.05267333984375,160,2019-01-03 13:00:00,0.9909324,8.240106,8.299475,186.8573
40.9765625,-71.05267333984375,160,2019-01-03 14:00:00,2.8395178,7.3353467,7.86576,201.16145
40.9765625,-71.05267333984375,160,2019-01-03 15:00:00,7.156052,5.014178,8.737909,234.98143
40.9765625,-71.05267333984375,160,2019-01-03 16:00:00,11.774829,-1.6304929,11.887182,277.88376
40.9765625,-71.05267333984375,160,2019-01-03 17:00:00,10.083955,-4.080662,10.8783245,292.03165
40.9765625,-71.05267333984375,160,2019-01-03 18:00:00,8.845527,-6.2477064,10.829458,305.23404
40.9765625,-71.05267333984375,160,2019-01-03 19:00:00,6.959645,-7.881815,10.514735,318.55548
40.9765625,-71.05267333984375,160,2019-01-03 20:00:00,8.987107,-7.719624,11.847391,310.66147
40.9765625,-71.05267333984375,160,2019-01-03 21:00:00,9.71314,-6.9420595,11.938897,305.5537
40.9765625,-71.05267333984375,160,2019-01-03 22:00:00,10.598232,-6.5182543,12.442273,301.59286
40.9765625,-71.05267333984375,160,2019-01-03 23:00:00,10.968614,-6.4529386,12.725993,300.4687
40.9765625,-71.05267333984375,160,2019-01-04 00:00:00,10.146059,-7.7477374,12.765968,307.3661
40.9765625,-71.05267333984375,160,2019-01-04 01:00:00,5.4911466,-7.5686555,9.350788,324.0387
40.9765625,-71.05267333984375,160,2019-01-04 02:00:00,5.5903974,-7.786523,9.585535,324.32324
40.9765625,-71.05267333984375,160,2019-01-04 03:00:00,5.3581953,-7.2387996,9.006135,323.49097
40.9765625,-71.05267333984375,160,2019-01-04 04:00:00,4.644124,-5.663936,7.324484,320.6501
40.9765625,-71.05267333984375,160,2019-01-04 05:00:00,4.8947043,-4.7612767,6.828461,314.2083
40.9765625,-71.05267333984375,160,2019-01-04 06:00:00,4.602997,-4.5003643,6.4374576,314.35406
40.9765625,-71.05267333984375,160,2019-01-04 07:00:00,4.452926,-2.7021198,5.2086473,301.25018
40.9765625,-71.05267333984375,160,2019-01-04 08:00:00,4.340907,-1.0325583,4.4620233,283.38013
40.9765625,-71.05267333984375,160,2019-01-04 09:00:00,5.2348323,0.81046087,5.297199,261.19928
40.9765625,-71.05267333984375,160,2019-01-04 10:00:00,6.726708,0.89762366,6.786334,262.39926
40.9765625,-71.05267333984375,160,2019-01-04 11:00:00,7.116645,0.7304262,7.154031,264.1399
40.9765625,-71.05267333984375,160,2019-01-04 12:00:00,6.438286,1.0521711,6.523694,260.71854
40.9765625,-71.05267333984375,160,2019-01-04 13:00:00,6.2459083,3.3913717,7.1072335,241.49915
40.9765625,-71.05267333984375,160,2019-01-04 14:00:00,8.367322,4.1966195,9.360753,243.364
40.9765625,-71.05267333984375,160,2019-01-04 15:00:00,9.232935,3.2111444,9.775405,250.82272
40.9765625,-71.05267333984375,160,2019-01-04 16:00:00,9.125051,2.8507986,9.56,252.65044
40.9765625,-71.05267333984375,160,2019-01-04 17:00:00,8.475369,3.4447803,9.148683,247.88092
40.9765625,-71.05267333984375,160,2019-01-04 18:00:00,8.325112,5.031848,9.72764,238.85046
40.9765625,-71.05267333984375,160,2019-01-04 19:00:00,8.987876,6.2276115,10.934581,235.28229
40.9765625,-71.05267333984375,160,2019-01-04 20:00:00,9.871271,7.090811,12.154077,234.30923
40.9765625,-71.05267333984375,160,2019-01-04 21:00:00,10.619673,6.9802475,12.708317,236.68332
40.9765625,-71.05267333984375,160,2019-01-04 22:00:00,10.270316,7.091651,12.480822,235.37494
40.9765625,-71.05267333984375,160,2019-01-04 23:00:00,9.861853,7.862893,12.6127405,231.4345
40.9765625,-71.05267333984375,160,2019-01-05 00:00:00,9.607168,8.05616,12.537918,230.01825
40.9765625,-71.05267333984375,160,2019-01-05 01:00:00,10.161861,5.5467963,11.577149,241.37231
40.9765625,-71.05267333984375,160,2019-01-05 02:00:00,9.253755,5.5551176,10.793114,239.0232
40.9765625,-71.05267333984375,160,2019-01-05 03:00:00,8.065524,5.073019,9.528284,237.83112
40.9765625,-71.05267333984375,160,2019-01-05 04:00:00,6.654939,5.0686674,8.365381,232.70566
40.9765625,-71.05267333984375,160,2019-01-05 05:00:00,4.977622,4.436071,6.6674914,228.29248
40.9765625,-71.05267333984375,160,2019-01-05 06:00:00,3.0268087,5.0006695,5.8453627,211.18571
40.9765625,-71.05267333984375,160,2019-01-05 07:00:00,0.58717054,4.2517486,4.2921014,187.86287
40.9765625,-71.05267333984375,160,2019-01-05 08:00:00,-0.40634355,4.590133,4.608084,174.94104
40.9765625,-71.05267333984375,160,2019-01-05 09:00:00,-3.4775813,6.531249,7.3993773,151.9668
40.9765625,-71.05267333984375,160,2019-01-05 10:00:00,-5.686173,3.0064228,6.43204,117.866516
40.9765625,-71.05267333984375,160,2019-01-05 11:00:00,-6.843111,1.5046422,7.0065765,102.400696
40.9765625,-71.05267333984375,160,2019-01-05 12:00:00,-9.577372,0.53834754,9.59249,93.217224
40.9765625,-71.05267333984375,160,2019-01-05 13:00:00,-13.265355,1.8200947,13.389638,97.81256
40.9765625,-71.05267333984375,160,2019-01-05 14:00:00,-11.750474,-0.09784441,11.750881,89.52292
40.9765625,-71.05267333984375,160,2019-01-05 15:00:00,-11.855823,-5.5944977,13.109498,64.7384
40.9765625,-71.05267333984375,160,2019-01-05 16:00:00,-13.515736,-6.8398657,15.1479,63.15753
40.9765625,-71.05267333984375,160,2019-01-05 17:00:00,-16.503464,-7.470715,18.115625,65.6449
40.9765625,-71.05267333984375,160,2019-01-05 18:00:00,-17.299648,-5.8530636,18.262974,71.307556
40.9765625,-71.05267333984375,160,2019-01-05 19:00:00,-18.327549,-6.2606354,19.36736,71.139984
40.9765625,-71.05267333984375,160,2019-01-05 20:00:00,-16.112707,-2.980882,16.386122,79.51868
40.9765625,-71.05267333984375,160,2019-01-05 21:00:00,-11.064503,-3.2334566,11.527292,73.70969
40.9765625,-71.05267333984375,160,2019-01-05 22:00:00,-6.5259485,-8.274363,10.538173,38.262665
40.9765625,-71.05267333984375,160,2019-01-05 23:00:00,-8.809294,-16.065584,18.3223,28.737427
40.9765625,-71.05267333984375,160,2019-01-06 00:00:00,-7.428188,-17.209793,18.744465,23.346252
40.9765625,-71.05267333984375,160,2019-01-06 01:00:00,2.1161878,-16.196867,16.334526,352.55624
40.9765625,-71.05267333984375,160,2019-01-06 02:00:00,4.0213127,-14.601343,15.144972,344.60208
40.9765625,-71.05267333984375,160,2019-01-06 03:00:00,4.439002,-12.361474,13.134336,340.2468
40.9765625,-71.05267333984375,160,2019-01-06 04:00:00,5.5532284,-11.368633,12.652437,333.9659
40.9765625,-71.05267333984375,160,2019-01-06 05:00:00,6.085328,-9.4857435,11.269896,327.31888
40.9765625,-71.05267333984375,160,2019-01-06 06:00:00,6.3206806,-8.078305,10.257194,321.95944
40.9765625,-71.05267333984375,160,2019-01-06 07:00:00,5.9987493,-8.284748,10.228492,324.09277
40.9765625,-71.05267333984375,160,2019-01-06 08:00:00,5.3263354,-7.862732,9.496968,325.88568
40.9765625,-71.05267333984375,160,2019-01-06 09:00:00,5.1706715,-7.041036,8.735676,323.70782
40.9765625,-71.05267333984375,160,2019-01-06 10:00:00,6.2232823,-5.334786,8.196901,310.6042
40.9765625,-71.05267333984375,160,2019-01-06 11:00:00,6.391912,-1.3846451,6.540167,282.2228
40.9765625,-71.05267333984375,160,2019-01-06 12:00:00,9.71696,-3.2739859,10.253696,288.62048
40.9765625,-71.05267333984375,160,2019-01-06 13:00:00,10.887743,-3.651615,11.483782,288.54083
40.9765625,-71.05267333984375,160,2019-01-06 14:00:00,11.124314,-2.8603537,11.486165,284.4199
40.9765625,-71.05267333984375,160,2019-01-06 15:00:00,11.83331,-4.469675,12.649317,290.69254
40.9765625,-71.05267333984375,160,2019-01-06 16:00:00,12.453994,-5.7040553,13.69811,294.60828
40.9765625,-71.05267333984375,160,2019-01-06 17:00:00,12.043516,-6.997937,13.929013,300.1589
40.9765625,-71.05267333984375,160,2019-01-06 18:00:00,10.649843,-8.789204,13.808304,309.5325
40.9765625,-71.05267333984375,160,2019-01-06 19:00:00,9.781398,-8.832221,13.178918,312.0808
40.9765625,-71.05267333984375,160,2019-01-06 20:00:00,9.226858,-9.031083,12.9110565,314.38565
40.9765625,-71.05267333984375,160,2019-01-06 21:00:00,8.867337,-11.254554,14.328107,321.7658
40.9765625,-71.05267333984375,160,2019-01-06 22:00:00,9.719744,-12.522488,15.852007,322.18198
40.9765625,-71.05267333984375,160,2019-01-06 23:00:00,9.050807,-12.782326,15.662214,324.69876
40.9765625,-71.05267333984375,160,2019-01-07 00:00:00,8.338267,-14.329077,16.578573,329.80435
40.9765625,-71.05267333984375,160,2019-01-07 01:00:00,11.606596,-13.351966,17.69147,319.0002
40.9765625,-71.05267333984375,160,2019-01-07 02:00:00,11.124036,-14.100369,17.960083,321.72946
40.9765625,-71.05267333984375,160,2019-01-07 03:00:00,9.062528,-14.670537,17.243958,328.29486
40.9765625,-71.05267333984375,160,2019-01-07 04:00:00,7.8940153,-15.641878,17.520954,333.22122
40.9765625,-71.05267333984375,160,2019-01-07 05:00:00,6.12118,-14.586141,15.8184805,337.23428
40.9765625,-71.05267333984375,160,2019-01-07 06:00:00,4.972756,-13.726231,14.5992365,340.0855
40.9765625,-71.05267333984375,160,2019-01-07 07:00:00,4.677846,-13.06051,13.872966,340.29413
40.9765625,-71.05267333984375,160,2019-01-07 08:00:00,4.393397,-13.050617,13.770278,341.39456
40.9765625,-71.05267333984375,160,2019-01-07 09:00:00,4.361518,-13.888396,14.557142,342.5656
40.9765625,-71.05267333984375,160,2019-01-07 10:00:00,3.7727368,-14.404625,14.890492,345.32324
40.9765625,-71.05267333984375,160,2019-01-07 11:00:00,3.720407,-13.882305,14.3721895,344.99747
40.9765625,-71.05267333984375,160,2019-01-07 12:00:00,3.7939606,-12.6942005,13.249033,343.36
40.9765625,-71.05267333984375,160,2019-01-07 13:00:00,3.482267,-11.7943945,12.29772,343.5509
40.9765625,-71.05267333984375,160,2019-01-07 14:00:00,2.6506927,-11.041367,11.355084,346.50052
40.9765625,-71.05267333984375,160,2019-01-07 15:00:00,2.041621,-9.881873,10.090571,348.32678
40.9765625,-71.05267333984375,160,2019-01-07 16:00:00,0.8865199,-9.866184,9.905933,354.8655
40.9765625,-71.05267333984375,160,2019-01-07 17:00:00,-0.016607564,-8.7105665,8.710583,0.10925293
40.9765625,-71.05267333984375,160,2019-01-07 18:00:00,0.015577259,-7.1476383,7.1476555,359.87512
40.9765625,-71.05267333984375,160,2019-01-07 19:00:00,0.060306825,-5.90536,5.9056683,359.41492
40.9765625,-71.05267333984375,160,2019-01-07 20:00:00,0.09140316,-4.585125,4.5860357,358.85797
40.9765625,-71.05267333984375,160,2019-01-07 21:00:00,-0.029732017,-3.2363584,3.236495,0.5263672
40.9765625,-71.05267333984375,160,2019-01-07 22:00:00,-0.032455534,-2.1971874,2.197427,0.84628296
40.9765625,-71.05267333984375,160,2019-01-07 23:00:00,-0.56289953,-1.6649415,1.7575228,18.67987
40.9765625,-71.05267333984375,160,2019-01-08 00:00:00,-0.96682143,-1.5178001,1.7995723,32.496674
40.9765625,-71.05267333984375,160,2019-01-08 01:00:00,-3.0157142,-0.5543908,3.0662487,79.583374
40.9765625,-71.05267333984375,160,2019-01-08 02:00:00,-4.1869903,0.66652614,4.2397103,99.04501
40.9765625,-71.05267333984375,160,2019-01-08 03:00:00,-3.3928475,2.516904,4.2244787,126.569
40.9765625,-71.05267333984375,160,2019-01-08 04:00:00,-2.0639434,4.557699,5.0032473,155.63672
40.9765625,-71.05267333984375,160,2019-01-08 05:00:00,-1.16768,5.820459,5.9364314,168.65613
40.9765625,-71.05267333984375,160,2019-01-08 06:00:00,-0.8111312,6.3650203,6.416496,172.73761
40.9765625,-71.05267333984375,160,2019-01-08 07:00:00,-1.5194498,6.9788,7.142295,167.71704
40.9765625,-71.05267333984375,160,2019-01-08 08:00:00,-2.502371,7.577597,7.98009,161.7251
40.9765625,-71.05267333984375,160,2019-01-08 09:00:00,-1.2456831,7.713803,7.813737,170.82666
40.9765625,-71.05267333984375,160,2019-01-08 10:00:00,-2.0170188,10.3961935,10.590053,169.02014
40.9765625,-71.05267333984375,160,2019-01-08 11:00:00,-0.6252548,11.109183,11.126765,176.77863
40.9765625,-71.05267333984375,160,2019-01-08 12:00:00,0.48447073,12.108763,12.11845,182.29118
40.9765625,-71.05267333984375,160,2019-01-08 13:00:00,0.34242624,12.452209,12.456917,181.57518
40.9765625,-71.05267333984375,160,2019-01-08 14:00:00,-0.8042711,12.265307,12.291648,176.24829
40.9765625,-71.05267333984375,160,2019-01-08 15:00:00,-1.6958283,11.946312,12.066077,171.92065
40.9765625,-71.05267333984375,160,2019-01-08 16:00:00,-2.6798317,12.537801,12.820996,167.93512
40.9765625,-71.05267333984375,160,2019-01-08 17:00:00,-4.564093,11.654276,12.516113,158.61353
40.9765625,-71.05267333984375,160,2019-01-08 18:00:00,-4.705092,11.780705,12.685539,158.22876
40.9765625,-71.05267333984375,160,2019-01-08 19:00:00,2.7643602,16.185595,16.419962,189.69211
40.9765625,-71.05267333984375,160,2019-01-08 20:00:00,7.6044936,11.069974,13.430288,214.48703
40.9765625,-71.05267333984375,160,2019-01-08 21:00:00,7.891405,7.1745625,10.665299,227.72409
40.9765625,-71.05267333984375,160,2019-01-08 22:00:00,7.2955346,6.719225,9.918307,227.35477
40.9765625,-71.05267333984375,160,2019-01-08 23:00:00,8.433176,5.029838,9.819253,239.18668
40.9765625,-71.05267333984375,160,2019-01-09 00:00:00,8.184287,4.5261083,9.352444,241.05635
40.9765625,-71.05267333984375,160,2019-01-09 01:00:00,5.735453,5.8446984,8.188768,224.4595
40.9765625,-71.05267333984375,160,2019-01-09 02:00:00,6.8236566,3.038757,7.469694,245.9953
40.9765625,-71.05267333984375,160,2019-01-09 03:00:00,6.5509806,2.1877422,6.906632,251.53293
40.9765625,-71.05267333984375,160,2019-01-09 04:00:00,5.853668,2.7788107,6.4797544,244.60571
40.9765625,-71.05267333984375,160,2019-01-09 05:00:00,4.607708,4.889111,6.718212,223.30275
40.9765625,-71.05267333984375,160,2019-01-09 06:00:00,5.977564,5.944093,8.429918,225.16086
40.9765625,-71.05267333984375,160,2019-01-09 07:00:00,5.218016,6.92567,8.671367,216.99551
40.9765625,-71.05267333984375,160,2019-01-09 08:00:00,3.6394005,9.717313,10.376483,200.5323
40.9765625,-71.05267333984375,160,2019-01-09 09:00:00,13.94256,8.281549,16.216629,239.2907
40.9765625,-71.05267333984375,160,2019-01-09 10:00:00,12.080781,-2.0443938,12.252543,279.60498
40.9765625,-71.05267333984375,160,2019-01-09 11:00:00,16.35245,3.182282,16.659218,258.98755
40.9765625,-71.05267333984375,160,2019-01-09 12:00:00,19.420023,2.7966511,19.620361,261.80524
40.9765625,-71.05267333984375,160,2019-01-09 13:00:00,21.071526,1.986654,21.16497,264.61398
40.9765625,-71.05267333984375,160,2019-01-09 14:00:00,21.213356,0.17786357,21.214102,269.51962
40.9765625,-71.05267333984375,160,2019-01-09 15:00:00,20.978838,0.29531732,20.980917,269.1935
40.9765625,-71.05267333984375,160,2019-01-09 16:00:00,19.558817,-0.7486679,19.573141,272.19208
40.9765625,-71.05267333984375,160,2019-01-09 17:00:00,19.125975,-0.452796,19.131334,271.3562
40.9765625,-71.05267333984375,160,2019-01-09 18:00:00,19.29899,0.15472837,19.29961,269.54065
40.9765625,-71.05267333984375,160,2019-01-09 19:00:00,19.384123,-1.3838602,19.433458,274.0835
40.9765625,-71.05267333984375,160,2019-01-09 20:00:00,18.87519,-2.7701843,19.077389,278.3493
40.9765625,-71.05267333984375,160,2019-01-09 21:00:00,19.066322,-3.4360924,19.373472,280.21606
40.9765625,-71.05267333984375,160,2019-01-09 22:00:00,17.699673,-3.45963,18.034618,281.05975
40.9765625,-71.05267333984375,160,2019-01-09 23:00:00,17.707302,-3.329504,18.017607,280.649
40.9765625,-71.05267333984375,160,2019-01-10 00:00:00,17.33104,-3.4417195,17.669476,281.23206
40.9765625,-71.05267333984375,160,2019-01-10 01:00:00,16.431063,-6.181144,17.555237,290.6156
40.9765625,-71.05267333984375,160,2019-01-10 02:00:00,17.234936,-6.030459,18.259502,289.28482
40.9765625,-71.05267333984375,160,2019-01-10 03:00:00,17.415247,-6.676641,18.65123,290.97577
40.9765625,-71.05267333984375,160,2019-01-10 04:00:00,15.165978,-6.956664,16.685385,294.64102
40.9765625,-71.05267333984375,160,2019-01-10 05:00:00,15.309706,-4.5951395,15.984443,286.7069
40.9765625,-71.05267333984375,160,2019-01-10 06:00:00,13.997524,-6.1887765,15.304627,293.85184
40.9765625,-71.05267333984375,160,2019-01-10 07:00:00,12.669033,-4.296152,13.377643,288.73212
40.9765625,-71.05267333984375,160,2019-01-10 08:00:00,12.755695,-2.7386072,13.046369,282.11728
40.9765625,-71.05267333984375,160,2019-01-10 09:00:00,13.185647,-1.6532516,13.288887,277.1466
40.9765625,-71.05267333984375,160,2019-01-10 10:00:00,13.161977,-1.9369799,13.303741,278.37183
40.9765625,-71.05267333984375,160,2019-01-10 11:00:00,13.640262,-2.1899922,13.814948,279.1212
40.9765625,-71.05267333984375,160,2019-01-10 12:00:00,13.97134,-5.134694,14.885007,290.1792
40.9765625,-71.05267333984375,160,2019-01-10 13:00:00,13.478382,-6.6920657,15.048273,296.40457
40.9765625,-71.05267333984375,160,2019-01-10 14:00:00,12.889495,-7.453556,14.889412,300.03934
40.9765625,-71.05267333984375,160,2019-01-10 15:00:00,11.640755,-7.6452904,13.9268675,303.2957
40.9765625,-71.05267333984375,160,2019-01-10 16:00:00,10.68408,-8.182641,13.457533,307.4475
40.9765625,-71.05267333984375,160,2019-01-10 17:00:00,10.338091,-8.390326,13.314416,309.06256
40.9765625,-71.05267333984375,160,2019-01-10 18:00:00,10.866019,-8.45612,13.768672,307.89066
40.9765625,-71.05267333984375,160,2019-01-10 19:00:00,11.351205,-9.337406,14.698197,309.44043
40.9765625,-71.05267333984375,160,2019-01-10 20:00:00,11.528319,-9.645285,15.03109,309.91788
40.9765625,-71.05267333984375,160,2019-01-10 21:00:00,11.917682,-10.266167,15.729759,310.74237
40.9765625,-71.05267333984375,160,2019-01-10 22:00:00,12.0821085,-10.226501,15.829045,310.24515
40.9765625,-71.05267333984375,160,2019-01-10 23:00:00,12.98239,-11.668396,17.455484,311.94876
40.9765625,-71.05267333984375,160,2019-01-11 00:00:00,12.24415,-11.848026,17.038044,314.058
40.9765625,-71.05267333984375,160,2019-01-11 01:00:00,12.245053,-9.919993,15.759048,309.01172
40.9765625,-71.05267333984375,160,2019-01-11 02:00:00,13.444658,-11.072785,17.417389,309.47427
40.9765625,-71.05267333984375,160,2019-01-11 03:00:00,13.22481,-13.22412,18.702217,314.9985
40.9765625,-71.05267333984375,160,2019-01-11 04:00:00,12.5604,-13.569623,18.490492,317.21185
40.9765625,-71.05267333984375,160,2019-01-11 05:00:00,10.969011,-12.112878,16.341389,317.83707
40.9765625,-71.05267333984375,160,2019-01-11 06:00:00,9.633013,-10.2957945,14.099586,316.90482
40.9765625,-71.05267333984375,160,2019-01-11 07:00:00,9.026299,-9.124958,12.835068,315.3114
40.9765625,-71.05267333984375,160,2019-01-11 08:00:00,8.88775,-7.7386637,11.784694,311.04645
40.9765625,-71.05267333984375,160,2019-01-11 09:00:00,8.702179,-7.0483613,11.198541,309.00586
40.9765625,-71.05267333984375,160,2019-01-11 10:00:00,8.146225,-6.5471115,10.451108,308.7888
40.9765625,-71.05267333984375,160,2019-01-11 11:00:00,7.9862795,-6.4504166,10.265892,308.92737
40.9765625,-71.05267333984375,160,2019-01-11 12:00:00,8.628216,-6.739897,10.948622,307.99503
40.9765625,-71.05267333984375,160,2019-01-11 13:00:00,8.929114,-7.581014,11.713277,310.33197
40.9765625,-71.05267333984375,160,2019-01-11 14:00:00,8.751532,-7.3818307,11.449049,310.1473